SCP
0 0 0 0 0 0 0 0 0 0 0 0 0 0 0 0 0 0 0 0 0 0 0 0 0 0 0 0 0 0 0 0 0 0 0 0 0 0 0 0 0 0 0
0 0 0 0 0 0 0 0 0 0 0 0 0 0 0 0 0 0 0 0 0 0 0 0 0 0 0 0 0 0 0 0 0 0 0 0 0 0 0 0 0 0 0
0 0 0 0 0 0 0 0 0 0 0 0 0 0 0 0 0 0 0 0 0 0 0 0 0 0 0 0 0 0 0 0 0 0 0 0 0 0 0 0 0 0 0
0 0 0 0 0 0 0 0 0 0 0 0 0 0 0 0 0 0 0 0 0 0 0 0 0 0 0 0 0 0 0 0 0 0 0 0 0 0 0 0 0 0 0
0 0 0 0 0 0 0 0 0 0 0 0 0 0 0 0 0 0 0 0 0 0 0 0 0 0 0 0 0 0 0 0 0 0 0 0 0 0 0 0 0 0 0
0 0 0 0 0 0 0 0 0 0 0 0 0 0 0 0 0 0 0 0 0 0 0 0 0 0 0 0 0 0 0 0 0 0 0 0 0 0 0 0 0 0 0
0 0 0 0 0 0 0 0 0 0 0 0 0 0 0 0 0 0 0 0 0 0 0 0 0 0 0 0 0 0 0 0 0 0 0 0 0 0 0 0 0 0 0
0 0 0 0 0 0 0 0 0 0 0 0 0 0 0 0 0 0 0 0 0 0 0 0 0 0 0 0 0 0 0 0 0 0 0 0 0 0 0 0 0 0 0
0 0 0 0 0 0 0 0 0 0 0 0 0 0 0 0 0 0 0 0 0 0 0 0 0 0 0 0 0 0 0 0 0 0 0 0 0 0 0 0 0 0 0
0 0 0 0 0 0 0 0 0 0 0 0 0 0 0 0 0 0 0 0 0 0 0 0 0 0 0 0 0 0 0 0 0 0 0 0 0 0 0 0 0 0 0
0 0 0 0 0 0 0 0 0 0 0 0 0 0 0 0 0 0 0 0 0 0 0 0 0 0 0 1 1 0 0 0 0 1 1 0 0 0 0 0 0 0 0
0 0 0 0 0 0 0 0 0 0 0 0 0 0 0 0 0 0 0 0 0 0 0 0 0 0 0 1 1 0 0 0 0 1 1 1 0 0 0 0 0 0 0
0 0 0 0 0 0 0 0 0 0 0 0 0 0 0 0 0 0 0 0 0 0 0 0 0 0 0 1 1 0 0 0 0 0 0 1 0 0 0 0 0 0 0
0 0 0 0 0 0 0 0 0 0 0 0 0 0 0 0 0 0 0 0 0 0 0 0 0 0 0 1 0 0 0 0 0 0 0 0 0 0 0 0 0 0 0
0 0 0 0 0 0 0 0 0 0 0 0 0 0 0 0 0 0 0 0 0 0 0 0 0 0 0 0 0 0 0 0 0 0 0 0 0 0 0 0 0 0 0
0 0 0 0 0 0 0 0 0 0 0 0 0 0 0 0 0 0 0 0 0 0 0 0 0 0 0 0 0 0 0 0 0 0 0 0 0 0 0 0 0 0 0
0 0 0 0 0 0 0 0 0 0 0 0 0 0 0 0 0 0 0 0 0 0 0 0 0 0 0 0 0 0 0 0 0 0 0 0 0 0 0 0 0 0 0
0 0 0 0 0 0 0 0 0 0 0 0 0 0 0 0 0 0 0 0 0 0 0 0 0 0 0 0 0 0 0 0 0 0 0 0 0 0 0 0 0 0 0
0 0 0 0 0 0 0 0 0 0 0 0 0 0 0 0 0 0 0 0 0 0 0 0 0 0 0 0 0 0 0 0 0 0 0 0 0 0 0 0 0 0 0
0 0 0 0 0 0 0 0 0 0 0 0 0 0 0 0 0 0 0 0 0 0 0 0 0 0 0 0 0 0 0 0 0 0 0 0 0 0 0 0 0 0 0
0 0 0 0 0 0 0 0 0 0 0 0 0 0 0 0 0 0 0 0 0 0 0 0 0 0 0 0 0 0 0 0 0 0 0 0 0 0 0 0 0 0 0
0 0 0 0 0 0 0 0 0 0 0 0 0 0 0 0 0 0 0 0 0 0 0 0 0 0 0 0 0 0 0 0 0 0 0 0 0 0 0 0 0 0 0
0 0 0 0 0 0 0 0 0 0 0 0 0 0 0 0 0 0 0 0 0 0 0 0 0 0 0 0 0 0 0 0 0 0 0 0 0 0 0 0 0 0 0
0 0 0 0 0 0 0 0 0 0 0 0 0 0 0 0 0 0 0 0 0 0 0 0 0 0 0 0 0 0 0 0 0 0 0 0 0 0 0 0 0 0 0
0 0 0 0 0 0 0 0 0 0 0 0 0 0 0 0 0 0 0 0 0 0 0 0 0 0 0 0 0 0 0 0 0 0 0 0 0 0 0 0 0 0 0
0 0 0 0 0 0 0 0 0 0 0 0 0 0 0 0 0 0 0 0 0 0 0 0 0 0 0 0 0 0 0 0 0 0 0 0 0 0 0 0 0 0 0
Wind_Speed
3 3 3 3 3 3 3 3 4 5 5 5 5 5 4 4 4 5 6 13 13 11 10 9 9 8 7 7 7 7 7 8 8 8 9 9 9 9 9 9 9 8 8
3 3 3 3 3 3 4 4 5 4 3 3 4 4 4 3 3 5 7 9 12 12 11 11 10 10 9 8 8 8 8 8 8 9 9 9 9 9 9 8 8 8 7
3 3 2 3 4 4 4 3 4 3 3 4 4 4 4 4 3 4 7 7 7 11 12 12 11 11 10 10 9 9 8 9 9 9 9 9 9 9 9 8 8 7 7
3 2 2 3 3 2 2 3 2 2 3 3 3 3 4 3 4 3 5 7 7 8 10 13 12 12 12 11 11 11 10 10 9 9 10 9 9 9 9 8 8 7 6
4 3 2 3 3 2 2 4 3 3 3 3 3 4 4 3 4 5 4 6 7 9 8 11 13 13 12 12 12 12 12 11 11 10 10 10 10 9 9 8 8 7 6
4 3 3 3 2 2 3 3 3 3 2 3 4 4 3 4 3 4 4 4 5 8 9 10 9 9 13 13 12 13 13 13 12 12 11 11 11 10 10 9 8 8 7
4 3 3 3 2 2 3 4 3 3 3 2 1 2 3 4 4 3 4 3 4 5 7 10 9 7 7 12 13 13 14 14 14 13 12 12 11 11 10 10 9 9 8
4 4 3 2 2 2 3 4 3 2 3 3 3 2 2 2 3 5 3 4 4 4 6 10 9 10 9 7 10 14 13 14 15 14 14 13 12 12 11 10 10 10 9
4 3 4 3 2 2 2 3 4 4 3 3 4 3 3 4 2 3 4 4 4 3 3 4 7 9 11 9 9 13 14 13 14 15 15 14 13 13 12 12 11 10 9
4 3 3 3 3 2 2 3 3 3 3 3 3 4 3 2 2 2 2 3 4 4 4 3 3 5 7 8 10 15 16 15 14 15 15 15 14 14 13 13 12 11 10
3 3 3 3 3 3 3 3 2 3 3 4 3 3 3 2 2 2 2 2 2 3 3 3 4 4 5 6 8 13 18 16 15 14 15 15 15 14 14 14 13 12 11
3 4 4 3 3 3 3 3 3 3 3 4 4 3 3 3 3 3 3 3 3 3 2 2 2 3 3 5 9 15 18 17 15 14 13 12 13 14 14 14 14 13 12
3 4 4 3 3 3 3 3 3 3 3 4 4 3 4 4 2 3 3 2 2 2 2 2 2 3 3 4 5 15 16 16 15 14 13 11 11 11 12 13 14 13 13
4 4 4 4 4 3 4 3 3 3 3 3 4 3 3 4 4 3 3 3 2 2 3 3 2 2 2 3 7 13 10 16 15 14 13 12 11 10 10 11 11 12 12
5 6 5 4 3 3 3 3 2 2 2 2 3 3 3 3 3 3 3 4 4 4 5 4 3 2 1 2 7 7 7 13 14 14 13 12 11 11 10 10 9 9 8
6 6 6 5 4 4 3 3 3 2 2 2 2 3 3 3 3 3 4 4 4 4 4 3 3 2 2 2 5 6 7 13 14 14 13 13 12 11 10 10 10 9 9
6 6 5 5 5 5 4 3 3 3 3 3 2 2 3 3 2 3 3 3 4 4 4 3 2 2 2 2 3 3 4 7 8 13 13 13 12 11 10 10 10 9 9
6 6 6 6 5 6 5 5 4 3 3 3 3 2 3 2 2 3 3 4 4 5 4 4 3 2 3 4 3 4 4 5 5 11 13 12 12 11 11 10 10 9 9
6 6 6 6 6 6 6 6 6 5 3 3 3 2 3 3 2 2 3 3 4 4 4 3 3 3 2 3 3 3 3 3 4 7 10 10 11 11 10 10 10 9 9
5 5 5 6 6 6 7 8 7 6 4 3 2 2 2 2 2 2 2 2 3 3 3 3 3 2 3 3 3 3 2 2 3 4 5 6 8 10 10 9 9 9 9
6 5 5 5 6 5 7 9 8 7 6 4 3 3 3 3 3 2 1 1 1 2 2 3 3 3 3 3 4 3 3 3 2 3 4 4 4 4 5 7 8 9 9
4 4 4 4 5 5 10 12 10 7 6 4 3 3 2 2 4 4 2 1 1 1 2 3 3 4 4 4 3 4 4 4 2 2 4 3 3 4 3 4 7 9 9
4 4 4 4 4 5 9 12 15 8 6 4 4 3 3 3 4 4 4 2 1 2 3 3 3 3 4 5 5 5 5 4 3 4 4 3 3 3 3 4 8 9 9
4 4 4 3 3 4 8 11 15 8 5 4 4 4 3 4 5 6 4 2 1 1 2 2 2 2 2 3 4 5 5 4 3 2 3 3 3 3 3 3 7 9 9
3 3 3 3 3 2 5 9 12 6 4 4 4 4 4 4 8 9 4 2 2 1 1 2 3 3 4 5 5 4 5 5 3 2 2 3 3 3 2 2 4 8 8
3 3 3 3 3 2 2 6 9 4 4 4 3 3 5 5 8 8 4 3 2 2 1 2 2 3 3 3 4 4 5 5 3 3 3 4 4 4 3 2 2 4 5
Wind_Direction
217 223 231 219 217 220 221 229 236 241 243 258 263 254 239 218 186 157 154 166 167 174 180 181 179 176 173 171 166 163 160 156 152 146 144 142 138 136 134 133 131 129 123
228 222 225 227 228 220 218 218 227 236 234 247 265 272 276 268 217 159 157 170 174 178 184 186 185 183 181 180 174 170 164 160 158 155 151 149 146 146 144 142 139 136 132
261 251 237 236 232 226 221 219 224 233 236 231 249 265 273 268 255 186 164 167 176 186 187 188 187 186 187 186 183 179 173 169 166 165 162 159 155 155 153 152 149 146 143
290 274 251 248 241 233 229 216 208 218 236 238 240 245 253 261 269 244 183 175 174 181 191 192 187 186 188 189 188 186 181 177 174 172 169 166 164 163 161 160 158 157 154
306 290 264 255 254 235 237 242 216 204 218 228 239 241 243 241 250 257 234 200 181 172 176 191 189 186 188 190 191 188 186 184 182 180 176 174 173 171 170 169 170 170 167
310 309 284 260 244 235 234 237 242 216 212 213 236 246 245 247 237 246 257 234 196 177 174 178 182 190 190 188 191 191 189 189 188 188 186 184 181 180 180 181 180 179 180
315 306 299 297 269 241 240 234 232 225 222 207 216 256 261 257 257 243 251 252 223 188 171 171 180 179 187 192 191 192 193 193 193 193 192 190 187 186 188 188 189 190 191
320 312 311 305 290 266 255 242 229 214 223 198 181 182 232 257 264 247 241 251 245 202 179 180 186 177 177 178 193 193 193 194 197 197 196 195 193 192 193 194 196 198 199
317 317 317 308 295 269 254 251 237 219 220 215 197 183 185 206 220 249 233 240 253 239 196 179 194 181 175 174 180 191 190 190 196 200 200 200 198 198 198 200 202 204 205
330 338 319 309 303 294 274 262 249 228 218 222 225 225 216 172 173 232 262 236 243 243 224 191 209 199 178 171 174 182 187 188 193 201 203 202 202 202 202 204 205 207 207
327 329 322 319 305 297 286 278 280 250 227 220 216 215 220 218 204 184 227 243 254 250 233 198 200 208 178 161 166 179 183 185 189 197 202 203 204 204 205 206 207 208 209
329 341 338 331 318 309 305 294 280 264 248 236 228 217 202 197 198 191 207 217 227 255 269 251 213 208 181 156 169 172 180 182 186 190 196 200 204 205 206 205 205 207 209
335 337 336 323 315 304 301 295 283 269 259 246 234 224 221 222 209 196 197 209 216 235 262 271 237 213 190 154 157 165 179 182 185 188 190 194 199 204 207 208 207 207 209
332 333 327 318 317 314 312 303 288 276 265 258 253 239 225 225 220 210 199 190 206 220 225 236 245 238 210 168 159 165 177 183 183 187 190 192 195 197 201 205 208 208 208
334 340 327 328 326 319 311 312 299 290 287 269 265 261 241 230 220 217 211 196 189 207 222 218 212 213 205 177 158 171 170 185 186 187 189 191 192 193 194 196 199 199 196
336 332 337 340 338 337 334 334 320 302 293 283 264 261 254 233 225 217 216 209 201 200 216 208 204 185 184 186 169 181 174 178 187 187 188 189 189 190 189 190 192 190 189
342 342 344 348 354 352 347 338 329 327 319 306 297 287 281 257 235 225 219 211 207 201 214 224 196 185 180 179 187 198 168 171 185 187 187 186 185 185 185 187 187 186 186
346 346 352 0 4 1 351 347 346 343 320 310 305 297 288 283 256 234 223 214 208 204 197 211 205 192 195 189 192 197 186 178 171 182 183 181 181 181 183 184 183 180 179
350 350 2 4 6 6 1 359 351 339 325 310 304 299 297 302 276 252 233 222 212 208 193 194 203 191 192 183 181 191 176 156 164 165 176 177 178 177 177 178 179 178 178
350 355 4 5 7 6 7 1 350 339 335 333 334 337 333 330 308 293 265 245 219 205 193 192 197 188 185 176 168 171 174 164 161 153 159 165 171 175 175 175 176 178 179
350 359 2 5 3 5 14 1 345 343 341 345 357 8 13 16 11 345 319 314 283 215 196 194 195 186 182 170 180 172 170 151 147 151 143 151 156 165 171 171 172 172 173
338 357 357 3 1 7 0 1 356 340 334 340 349 351 351 16 16 6 332 292 273 229 213 205 202 192 194 186 173 168 160 156 172 168 145 150 152 155 157 157 161 162 162
354 350 346 353 356 0 359 356 352 336 327 343 353 350 359 20 14 358 337 309 280 268 243 219 207 202 183 182 175 175 172 168 171 163 142 151 150 150 145 142 149 157 161
342 332 331 337 339 0 4 357 348 334 329 346 358 360 11 23 14 360 336 336 347 330 270 217 199 200 174 161 171 174 164 144 115 137 137 146 150 140 127 135 155 158 160
312 311 318 322 323 349 10 3 355 326 332 347 2 13 21 26 9 3 353 352 3 356 47 98 125 135 137 146 148 140 148 150 154 168 155 138 142 127 124 138 156 159 160
284 292 295 294 302 316 19 7 359 333 341 342 346 27 47 27 5 4 356 356 3 355 49 105 115 134 144 149 157 161 164 163 150 165 170 144 147 140 137 140 150 157 152